This demonstration page uses our WeatherBlox Daily Observations layout. Learn more.

36.17497, -115.13722

Hourly Observations for December 15, 2019

Temp ( °F °C ) Dew Point ( °F °C ) Humidity (%) Winds ( mph kmh ) Pressure ( in mb ) Visibility ( mi km ) Precip ( " mm )
12:53 am 00:53 Mostly Clear 49 9.4 44 6.7 83 83 Calm 29.77 1008 10 16.09344 0 0
1:53 am 01:53 Mostly Cloudy 49 9.4 44 6.7 83 83 NNW 7 11 29.77 1008 10 16.09344 0 0
2:53 am 02:53 Cloudy 49 9.4 40 4.4 71 71 NNW 5 7 29.77 1008 10 16.09344 0 0
3:53 am 03:53 Cloudy 50 10 38 3.3 63 63 NNW 12 19 29.77 1008 10 16.09344 0 0
4:53 am 04:53 Cloudy 48 8.9 38 3.3 68 68 W 22 35 29.8 1009 10 16.09344 0.001 0.001
5:53 am 05:53 Cloudy 47 8.3 38 3.3 71 71 SE 5 7 29.85 1011 10 16.09344 0.01 0.254
6:53 am 06:53 Partly Cloudy 46 7.8 38 3.3 73 73 ENE 5 7 29.88 1012 10 16.09344 0 0
7:53 am 07:53 Partly Cloudy 46 7.8 39 3.9 77 77 SSE 3 6 29.91 1013 10 16.09344 0 0
8:53 am 08:53 Sunny 49 9.4 39 3.9 69 69 W 3 6 29.94 1014 10 16.09344 0 0
9:53 am 09:53 Sunny 52 11.1 36 2.2 55 55 WSW 7 11 29.97 1015 10 16.09344 0 0
10:53 am 10:53 Partly Cloudy with Light Rain 55 12.8 26 -3.3 33 33 NNW 24 39 29.94 1014 10 16.09344 0.001 0.001
11:53 am 11:53 Sunny with Light Rain 56 13.3 24 -4.4 29 29 NW 22 35 29.94 1014 10 16.09344 0.001 0.001
12:53 pm 12:53 Sunny with Light Rain 57 13.9 23 -5 27 27 NW 26 43 29.94 1014 10 16.09344 0.001 0.001
1:53 pm 13:53 Sunny with Light Rain 57 13.9 22 -5.6 26 26 NW 18 30 29.97 1015 10 16.09344 0.001 0.001
2:53 pm 14:53 Sunny with Light Rain 57 13.9 22 -5.6 26 26 NW 10 17 30 1016 10 16.09344 0.001 0.001
3:53 pm 15:53 Sunny with Light Rain 56 13.3 21 -6.1 26 26 NW 15 24 30 1016 10 16.09344 0.001 0.001
4:53 pm 16:53 Clear 54 12.2 22 -5.6 29 29 NW 8 13 30.03 1017 10 16.09344 0.001 0.001
5:53 pm 17:53 Clear 53 11.7 24 -4.4 32 32 NW 16 26 30.06 1018 10 16.09344 0 0
6:53 pm 18:53 Mostly Clear 51 10.6 26 -3.3 38 38 Calm 30.12 1020 10 16.09344 0 0
7:53 pm 19:53 Clear 49 9.4 25 -3.9 39 39 Calm 30.12 1020 10 16.09344 0 0
8:53 pm 20:53 Clear 48 8.9 25 -3.9 41 41 N 7 11 30.15 1021 10 16.09344 0 0
9:53 pm 21:53 Clear 48 8.9 24 -4.4 39 39 NNE 6 9 30.18 1022 10 16.09344 0 0
10:53 pm 22:53 Clear 47 8.3 23 -5 39 39 N 8 13 30.21 1023 10 16.09344 0 0
11:53 pm 23:53 Clear 45 7.2 24 -4.4 44 44 N 8 13 30.21 1023 10 16.09344 0 0

Powered by AerisWeather